TimeCDT,TemperatureF,Dew PointF,Humidity,Sea Level PressureIn,VisibilityMPH,Wind Direction,Wind SpeedMPH,Gust SpeedMPH,PrecipitationIn,Events,Conditions,WindDirDegrees,DateUTC
12:15 AM,73.8,57.6,57,30.04,10.0,NNW,3.5,-,N/A,,Clear,340,2013-06-28 05:15:00
12:35 AM,72.7,57.2,58,30.04,10.0,Calm,Calm,-,N/A,,Clear,0,2013-06-28 05:35:00
12:55 AM,74.8,56.3,52,30.04,10.0,SSE,3.5,-,N/A,,Clear,150,2013-06-28 05:55:00
1:15 AM,74.1,56.3,54,30.04,10.0,Calm,Calm,-,N/A,,Clear,0,2013-06-28 06:15:00
1:35 AM,71.4,57.2,61,30.05,10.0,Calm,Calm,-,N/A,,Clear,0,2013-06-28 06:35:00
1:55 AM,72.0,57.6,60,30.04,10.0,Calm,Calm,-,N/A,,Clear,0,2013-06-28 06:55:00
2:15 AM,70.3,57.9,65,30.04,10.0,Calm,Calm,-,N/A,,Clear,0,2013-06-28 07:15:00
2:35 AM,68.7,57.9,68,30.04,10.0,North,3.5,-,N/A,,Clear,350,2013-06-28 07:35:00
2:55 AM,71.1,58.6,65,30.04,10.0,Calm,Calm,-,N/A,,Clear,0,2013-06-28 07:55:00
3:15 AM,70.2,60.3,71,30.04,10.0,Calm,Calm,-,N/A,,Clear,0,2013-06-28 08:15:00
3:35 AM,73.9,64.9,73,30.02,10.0,SW,4.6,-,N/A,,Clear,220,2013-06-28 08:35:00
3:55 AM,74.7,65.3,73,30.00,10.0,Calm,Calm,-,N/A,,Clear,0,2013-06-28 08:55:00
4:15 AM,74.3,65.5,74,30.00,10.0,SW,4.6,-,N/A,,Clear,220,2013-06-28 09:15:00
4:35 AM,73.8,65.1,74,30.00,10.0,Calm,Calm,-,N/A,,Clear,0,2013-06-28 09:35:00
4:55 AM,73.8,65.3,75,30.00,10.0,West,3.5,-,N/A,,Clear,280,2013-06-28 09:55:00
5:15 AM,73.8,66.4,78,30.01,10.0,SW,3.5,-,N/A,,Clear,220,2013-06-28 10:15:00
5:35 AM,72.9,66.9,82,30.02,10.0,WNW,4.6,-,N/A,,Clear,300,2013-06-28 10:35:00
5:55 AM,72.5,67.3,84,30.01,10.0,SSW,6.9,-,N/A,,Clear,200,2013-06-28 10:55:00
6:15 AM,72.0,67.1,85,30.02,10.0,WSW,3.5,-,N/A,,Clear,250,2013-06-28 11:15:00
6:35 AM,68.7,65.1,88,30.02,10.0,Calm,Calm,-,N/A,,Clear,0,2013-06-28 11:35:00
6:55 AM,67.8,65.1,91,30.04,10.0,Calm,Calm,-,N/A,,Clear,0,2013-06-28 11:55:00
7:55 AM,72.5,68.9,88,30.05,10.0,SSW,6.9,-,N/A,,Mostly Cloudy,210,2013-06-28 12:55:00
8:15 AM,73.6,69.3,86,30.06,10.0,WSW,4.6,-,N/A,,Overcast,240,2013-06-28 13:15:00
8:35 AM,74.8,69.8,84,30.05,10.0,SW,10.4,-,N/A,,Mostly Cloudy,220,2013-06-28 13:35:00
8:55 AM,76.5,69.3,78,30.06,10.0,SW,8.1,-,N/A,,Clear,230,2013-06-28 13:55:00
9:15 AM,77.5,69.1,75,30.06,10.0,SW,5.8,-,N/A,,Clear,220,2013-06-28 14:15:00
9:35 AM,79.2,68.9,71,30.06,10.0,WSW,4.6,-,N/A,,Clear,240,2013-06-28 14:35:00
9:55 AM,81.5,68.0,63,30.04,10.0,SSW,8.1,-,N/A,,Clear,210,2013-06-28 14:55:00
10:15 AM,83.1,67.1,58,30.05,10.0,WSW,5.8,-,N/A,,Clear,240,2013-06-28 15:15:00
10:35 AM,85.1,64.6,50,30.05,10.0,West,8.1,-,N/A,,Clear,280,2013-06-28 15:35:00
10:55 AM,86.0,63.5,47,30.05,10.0,SW,5.8,-,N/A,,Clear,220,2013-06-28 15:55:00
11:15 AM,88.0,63.7,44,30.05,10.0,SW,4.6,-,N/A,,Clear,220,2013-06-28 16:15:00
11:35 AM,88.5,62.1,41,30.04,10.0,WSW,4.6,-,N/A,,Clear,250,2013-06-28 16:35:00
11:55 AM,90.0,59.5,36,30.04,10.0,Calm,Calm,-,N/A,,Clear,0,2013-06-28 16:55:00
12:15 PM,91.8,59.7,34,30.03,10.0,SSW,5.8,-,N/A,,Clear,210,2013-06-28 17:15:00
12:35 PM,92.5,58.5,32,30.02,10.0,WNW,4.6,-,N/A,,Clear,290,2013-06-28 17:35:00
12:55 PM,93.6,58.8,31,30.01,10.0,SSW,4.6,-,N/A,,Clear,210,2013-06-28 17:55:00
1:15 PM,95.5,58.1,29,30.00,10.0,Calm,Calm,-,N/A,,Clear,0,2013-06-28 18:15:00
1:35 PM,95.5,57.7,28,29.99,10.0,SSW,5.8,-,N/A,,Clear,200,2013-06-28 18:35:00
1:55 PM,95.9,57.7,28,29.99,10.0,SW,3.5,-,N/A,,Clear,230,2013-06-28 18:55:00
2:15 PM,98.6,56.5,24,29.97,10.0,North,9.2,-,N/A,,Clear,10,2013-06-28 19:15:00
2:35 PM,98.2,57.2,25,29.97,10.0,SE,6.9,-,N/A,,Clear,130,2013-06-28 19:35:00
2:55 PM,99.5,56.1,23,29.96,10.0,NE,9.2,-,N/A,,Clear,50,2013-06-28 19:55:00
3:15 PM,100.8,55.6,22,29.95,10.0,East,6.9,-,N/A,,Clear,100,2013-06-28 20:15:00
3:35 PM,99.7,55.4,23,29.94,10.0,SSE,4.6,-,N/A,,Clear,150,2013-06-28 20:35:00
3:55 PM,99.9,55.4,23,29.94,10.0,NE,4.6,-,N/A,,Clear,50,2013-06-28 20:55:00
4:15 PM,100.9,55.0,22,29.93,10.0,Calm,Calm,-,N/A,,Scattered Clouds,0,2013-06-28 21:15:00
4:35 PM,100.9,54.7,21,29.92,10.0,East,5.8,-,N/A,,Clear,90,2013-06-28 21:35:00
4:55 PM,102.4,53.6,20,29.92,10.0,ENE,5.8,16.1,N/A,,Clear,60,2013-06-28 21:55:00
5:15 PM,101.1,54.3,21,29.91,10.0,NE,6.9,-,N/A,,Clear,40,2013-06-28 22:15:00
5:35 PM,101.7,54.1,20,29.90,10.0,East,4.6,-,N/A,,Clear,80,2013-06-28 22:35:00
5:55 PM,100.8,54.5,21,29.89,10.0,ENE,6.9,-,N/A,,Clear,70,2013-06-28 22:55:00
6:15 PM,100.4,54.3,21,29.89,10.0,Calm,Calm,-,N/A,,Clear,0,2013-06-28 23:15:00
6:35 PM,99.7,54.3,22,29.88,10.0,SE,5.8,-,N/A,,Clear,140,2013-06-28 23:35:00
6:55 PM,100.4,55.0,22,29.89,10.0,ESE,5.8,-,N/A,,Scattered Clouds,120,2013-06-28 23:55:00
7:15 PM,98.4,55.6,24,29.89,10.0,ESE,4.6,-,N/A,,Scattered Clouds,120,2013-06-29 00:15:00
7:35 PM,96.4,58.8,28,29.89,10.0,South,5.8,-,N/A,,Clear,170,2013-06-29 00:35:00
7:55 PM,95.9,58.3,28,29.89,10.0,SSE,5.8,-,N/A,,Clear,150,2013-06-29 00:55:00
8:15 PM,94.5,58.8,30,29.90,10.0,South,5.8,-,N/A,,Clear,170,2013-06-29 01:15:00
8:35 PM,93.4,58.8,31,29.90,10.0,Calm,Calm,-,N/A,,Clear,0,2013-06-29 01:35:00
8:55 PM,92.3,59.0,33,29.91,10.0,Calm,Calm,-,N/A,,Clear,0,2013-06-29 01:55:00
9:15 PM,89.2,59.2,36,29.91,10.0,Calm,Calm,-,N/A,,Clear,0,2013-06-29 02:15:00
9:35 PM,85.5,59.9,42,29.91,10.0,Calm,Calm,-,N/A,,Clear,0,2013-06-29 02:35:00
9:55 PM,83.8,61.2,46,29.91,10.0,Calm,Calm,-,N/A,,Clear,0,2013-06-29 02:55:00
10:15 PM,82.2,62.1,50,29.92,10.0,Calm,Calm,-,N/A,,Clear,0,2013-06-29 03:15:00
10:35 PM,84.6,62.2,47,29.92,10.0,WSW,3.5,-,N/A,,Clear,250,2013-06-29 03:35:00
10:55 PM,84.4,61.0,45,29.93,10.0,Calm,Calm,-,N/A,,Clear,0,2013-06-29 03:55:00
11:15 PM,81.7,61.0,49,29.92,10.0,Calm,Calm,-,N/A,,Clear,0,2013-06-29 04:15:00
11:35 PM,81.7,61.2,50,29.92,10.0,Calm,Calm,-,N/A,,Clear,0,2013-06-29 04:35:00
11:55 PM,79.3,61.7,55,29.92,10.0,Calm,Calm,-,N/A,,Scattered Clouds,0,2013-06-29 04:55:00